N1OTX Weather Reports


Display with metric or nautical units.
time (UTC)temp
F
wind
direction
speed
MPH
gust
MPH
rain 1hr
in
rain 24hr
in
rain mn
in
humidity
%
barometer
mb
20210123210039 24 338 6.0 16.0 0.00 0.00 0.00 47 1011.3
20210123205533 24 338 7.0 16.0 0.00 0.00 0.00 47 1011.2
20210123205043 25 338 8.0 15.0 0.00 0.00 0.00 47 1011.2
20210123204537 25 338 8.0 20.0 0.00 0.00 0.00 46 1011.1
20210123204027 25 338 9.0 15.0 0.00 0.00 0.00 46 1011.0
20210123203531 25 338 8.0 16.0 0.00 0.00 0.00 46 1010.9
20210123203027 25 315 6.0 12.0 0.00 0.00 0.00 46 1010.9
20210123202558 25 338 7.0 16.0 0.00 0.00 0.00 46 1010.8
20210123202031 25 338 7.0 14.0 0.00 0.00 0.00 45 1010.8
20210123201528 26 315 6.0 19.0 0.00 0.00 0.00 46 1010.7
20210123201032 26 338 7.0 17.0 0.00 0.00 0.00 45 1010.6
20210123200554 26 338 7.0 14.0 0.00 0.00 0.00 46 1010.7
20210123200042 26 338 4.0 12.0 0.00 0.00 0.00 45 1010.6
20210123195551 26 315 6.0 18.0 0.00 0.00 0.00 45 1010.6
20210123195025 26 315 7.0 12.0 0.00 0.00 0.00 45 1010.5
20210123194525 26 338 7.0 14.0 0.00 0.00 0.00 44 1010.4
20210123194115 26 338 7.0 14.0 0.00 0.00 0.00 44 1010.3
20210123193517 26 338 9.0 22.0 0.00 0.00 0.00 45 1010.2
20210123193042 26 338 10.0 22.0 0.00 0.00 0.00 44 1010.3
20210123192524 27 338 10.0 16.0 0.00 0.00 0.00 44 1010.3
20210123192027 27 315 6.0 11.0 0.00 0.00 0.00 44 1010.3
20210123191535 27 315 7.0 13.0 0.00 0.00 0.00 44 1010.3
20210123191026 27 338 5.0 14.0 0.00 0.00 0.00 44 1010.2
20210123190524 27 338 7.0 14.0 0.00 0.00 0.00 43 1010.1
20210123190031 28 0 8.0 17.0 0.00 0.00 0.00 44 1010.1
20210123185524 28 315 6.0 15.0 0.00 0.00 0.00 44 1010.0
20210123185029 28 315 4.0 10.0 0.00 0.00 0.00 44 1010.1
20210123184530 28 315 6.0 16.0 0.00 0.00 0.00 44 1010.0
20210123184031 28 338 4.0 12.0 0.00 0.00 0.00 45 1010.1
20210123183526 28 338 6.0 13.0 0.00 0.00 0.00 45 1010.0
20210123183038 28 315 4.0 10.0 0.00 0.00 0.00 44 1010.0
20210123182519 28 293 6.0 12.0 0.00 0.00 0.00 45 1009.9
20210123182023 28 338 6.0 12.0 0.00 0.00 0.00 45 1009.9
20210123181555 28 338 7.0 13.0 0.00 0.00 0.00 45 1009.8
20210123181029 28 338 8.0 14.0 0.00 0.00 0.00 46 1009.8
20210123180519 28 338 7.0 15.0 0.00 0.00 0.00 46 1009.7
20210123180026 28 315 7.0 15.0 0.00 0.00 0.00 46 1009.7
20210123175524 28 338 8.0 17.0 0.00 0.00 0.00 45 1009.8
20210123175021 28 338 9.0 15.0 0.00 0.00 0.00 46 1009.6
20210123174528 28 338 7.0 14.0 0.00 0.00 0.00 45 1009.6
20210123174019 29 315 7.0 14.0 0.00 0.00 0.00 45 1009.6
20210123173527 29 338 6.0 12.0 0.00 0.00 0.00 46 1009.6
20210123173025 29 338 6.0 14.0 0.00 0.00 0.00 46 1009.6
20210123172528 29 0 5.0 13.0 0.00 0.00 0.00 46 1009.6
20210123172024 29 338 6.0 13.0 0.00 0.00 0.00 46 1009.8
20210123171523 29 315 5.0 20.0 0.00 0.00 0.00 47 1009.8
20210123171022 28 338 7.0 15.0 0.00 0.00 0.00 46 1009.9
20210123170523 28 338 5.0 12.0 0.00 0.00 0.00 47 1009.9
20210123170024 29 338 5.0 14.0 0.00 0.00 0.00 46 1009.8
20210123165519 28 338 5.0 11.0 0.00 0.00 0.00 47 1009.8
20210123165026 28 338 6.0 13.0 0.00 0.00 0.00 48 1009.8
20210123164530 28 315 5.0 11.0 0.00 0.00 0.00 48 1009.9
20210123164030 28 338 5.0 14.0 0.00 0.00 0.00 46 1010.0
20210123163545 28 338 8.0 13.0 0.00 0.00 0.00 48 1010.0
20210123163028 28 338 9.0 16.0 0.00 0.00 0.00 48 1010.1
20210123162526 28 0 5.0 11.0 0.00 0.00 0.00 48 1010.1
20210123162024 28 315 4.0 9.0 0.00 0.00 0.00 48 1010.2
20210123161522 29 338 6.0 11.0 0.00 0.00 0.00 48 1010.2
20210123161031 29 338 6.0 11.0 0.00 0.00 0.00 47 1010.3
20210123160520 29 338 6.0 12.0 0.00 0.00 0.00 49 1010.4
20210123160025 29 0 6.0 15.0 0.00 0.00 0.00 47 1010.4
20210123155522 29 338 5.0 10.0 0.00 0.00 0.00 48 1010.4
20210123155022 28 338 5.0 11.0 0.00 0.00 0.00 48 1010.5
20210123154531 28 338 7.0 16.0 0.00 0.00 0.00 49 1010.6
20210123154021 28 338 6.0 15.0 0.00 0.00 0.00 50 1010.6
20210123153516 28 315 7.0 17.0 0.00 0.00 0.00 50 1010.6
20210123153024 28 338 8.0 15.0 0.00 0.00 0.00 50 1010.7
20210123152528 28 338 7.0 13.0 0.00 0.00 0.00 50 1010.7
20210123152025 28 315 6.0 14.0 0.00 0.00 0.00 49 1010.7
20210123151542 28 338 5.0 11.0 0.00 0.00 0.00 50 1010.7
20210123151025 27 338 6.0 13.0 0.00 0.00 0.00 51 1010.6
20210123150520 28 338 8.0 14.0 0.00 0.00 0.00 52 1010.6
20210123150022 27 315 6.0 13.0 0.00 0.00 0.00 52 1010.6
20210123145518 27 338 7.0 12.0 0.00 0.00 0.00 53 1010.5
20210123145028 27 338 8.0 15.0 0.00 0.00 0.00 53 1010.5
20210123144524 27 338 6.0 12.0 0.00 0.00 0.00 54 1010.5
20210123144026 28 315 6.0 12.0 0.00 0.00 0.00 55 1010.4
20210123143522 28 315 4.0 10.0 0.00 0.00 0.00 57 1010.5
20210123143032 28 315 3.0 9.0 0.00 0.00 0.00 58 1010.5
20210123142517 28 315 6.0 15.0 0.00 0.00 0.00 57 1010.5
20210123142020 27 338 5.0 12.0 0.00 0.00 0.00 58 1010.6
20210123141522 28 338 7.0 16.0 0.00 0.00 0.00 57 1010.5
20210123141019 28 0 4.0 13.0 0.00 0.00 0.00 59 1010.4
20210123140517 28 338 5.0 11.0 0.00 0.00 0.00 58 1010.3
20210123140021 28 338 5.0 12.0 0.00 0.00 0.00 58 1010.3
20210123135525 28 338 7.0 17.0 0.00 0.00 0.00 59 1010.2
20210123135024 27 0 5.0 11.0 0.00 0.00 0.00 60 1010.2
20210123134523 27 338 4.0 10.0 0.00 0.00 0.00 60 1010.2
20210123134028 27 293 4.0 9.0 0.00 0.00 0.00 61 1010.2
20210123133522 27 338 5.0 11.0 0.00 0.00 0.00 61 1010.2
20210123133026 27 338 6.0 11.0 0.00 0.00 0.00 61 1010.1
20210123132517 27 338 6.0 12.0 0.00 0.00 0.00 61 1010.0
20210123132030 27 338 5.0 12.0 0.00 0.00 0.00 63 1009.9
20210123131527 27 315 3.0 8.0 0.00 0.00 0.00 65 1009.9
20210123131020 27 338 5.0 10.0 0.00 0.00 0.00 65 1009.9
20210123130520 27 338 6.0 11.0 0.00 0.00 0.00 67 1010.0
20210123130022 27 338 4.0 10.0 0.00 0.00 0.00 68 1009.9
20210123125524 27 338 4.0 9.0 0.00 0.00 0.00 70 1009.8
20210123125022 27 338 4.0 10.0 0.00 0.00 0.00 74 1009.8
20210123124524 27 338 4.0 10.0 0.00 0.00 0.00 77 1009.7
20210123124024 28 338 6.0 10.0 0.00 0.00 0.00 76 1009.8
20210123123526 28 338 6.0 10.0 0.00 0.00 0.00 74 1009.7
20210123123024 28 338 4.0 8.0 0.00 0.00 0.00 65 1009.7
20210123122521 28 338 2.0 5.0 0.00 0.00 0.00 63 1009.6
20210123122016 28 315 4.0 9.0 0.00 0.00 0.00 63 1009.5
20210123121524 28 338 2.0 5.0 0.00 0.00 0.00 63 1009.5
20210123121021 28 315 3.0 9.0 0.00 0.00 0.00 64 1009.4
20210123120517 28 315 3.0 5.0 0.00 0.00 0.00 63 1009.4
20210123120034 28 0 3.0 9.0 0.00 0.00 0.00 64 1009.3
20210123115524 28 315 1.0 3.0 0.00 0.00 0.00 65 1009.3
20210123115034 28 293 2.0 5.0 0.00 0.00 0.00 64 1009.3
20210123114528 27 315 2.0 6.0 0.00 0.00 0.00 65 1009.3
20210123114027 27 315 2.0 5.0 0.00 0.00 0.00 66 1009.3
20210123113521 27 293 1.0 5.0 0.00 0.00 0.00 66 1009.3
20210123113021 27 0 2.0 4.0 0.00 0.00 0.00 67 1009.2
20210123112520 27 315 2.0 6.0 0.00 0.00 0.00 67 1009.2
20210123112021 27 315 2.0 4.0 0.00 0.00 0.00 67 1009.2
20210123111522 27 315 2.0 8.0 0.00 0.00 0.00 68 1009.1
20210123111022 27 293 1.0 3.0 0.00 0.00 0.00 69 1009.0
20210123110517 27 248 1.0 4.0 0.00 0.00 0.00 70 1009.0
20210123110039 27 248 1.0 8.0 0.00 0.00 0.00 71 1008.9
20210123105518 27 293 1.0 3.0 0.00 0.00 0.00 71 1008.9
20210123105023 27 0.0 2.0 0.00 0.00 0.00 71 1008.9
20210123104526 27 0.0 2.0 0.00 0.00 0.00 72 1008.9
20210123104023 27 0.0 1.0 0.00 0.00 0.00 72 1008.8
20210123103523 27 0.0 3.0 0.00 0.00 0.00 73 1008.7
20210123103036 27 248 1.0 6.0 0.00 0.00 0.00 74 1008.7
20210123102521 26 248 2.0 6.0 0.00 0.00 0.00 74 1008.7
20210123102031 26 248 1.0 4.0 0.00 0.00 0.00 74 1008.7
20210123101543 26 180 1.0 3.0 0.00 0.00 0.00 75 1008.6
20210123101028 26 248 1.0 4.0 0.00 0.00 0.00 76 1008.6
20210123100524 26 0.0 2.0 0.00 0.00 0.00 76 1008.6
20210123100021 26 225 1.0 3.0 0.00 0.00 0.00 76 1008.6
20210123095523 26 225 1.0 4.0 0.00 0.00 0.00 77 1008.6
20210123095034 26 0.0 3.0 0.00 0.00 0.00 77 1008.6
20210123094526 26 0.0 4.0 0.00 0.00 0.00 78 1008.7
20210123094027 26 270 1.0 7.0 0.00 0.00 0.00 78 1008.6
20210123093526 26 248 1.0 3.0 0.00 0.00 0.00 78 1008.5
20210123093023 26 225 1.0 3.0 0.00 0.00 0.00 79 1008.4
20210123092523 26 0.0 3.0 0.00 0.00 0.00 79 1008.4
20210123092021 26 0.0 2.0 0.00 0.00 0.00 80 1008.4
20210123091523 26 248 1.0 3.0 0.00 0.00 0.00 80 1008.5
20210123091022 26 0.0 1.0 0.00 0.00 0.00 79 1008.5
20210123090524 26 0.0 2.0 0.00 0.00 0.00 79 1008.5
20210123090031 26 0.0 1.0 0.00 0.00 0.00 79 1008.5
20210123085529 26 0.0 0.0 0.00 0.00 0.00 80 1008.5
20210123085026 26 0.0 2.0 0.00 0.00 0.00 79 1008.6
20210123084525 26 0.0 1.0 0.00 0.00 0.00 79 1008.6
20210123084034 26 0.0 1.0 0.00 0.00 0.00 79 1008.6
20210123083533 26 0.0 1.0 0.00 0.00 0.00 79 1008.7
20210123083037 27 0.0 0.0 0.00 0.00 0.00 79 1008.7
20210123082518 27 293 1.0 3.0 0.00 0.00 0.00 79 1008.6
20210123082016 27 0.0 2.0 0.00 0.00 0.00 78 1008.6
20210123081522 27 0.0 2.0 0.00 0.00 0.00 78 1008.6
20210123081024 27 0.0 1.0 0.00 0.00 0.00 78 1008.5
20210123080517 27 0.0 1.0 0.00 0.00 0.00 78 1008.4
20210123080027 27 0.0 1.0 0.00 0.00 0.00 78 1008.3
20210123075528 28 0.0 2.0 0.00 0.00 0.00 78 1008.3
20210123075019 28 0.0 1.0 0.00 0.00 0.00 78 1008.3
20210123074530 28 0.0 1.0 0.00 0.00 0.00 78 1008.3
20210123074021 28 0.0 2.0 0.00 0.00 0.00 77 1008.3
20210123073520 28 270 1.0 3.0 0.00 0.00 0.00 78 1008.4
20210123073025 28 0.0 1.0 0.00 0.00 0.00 77 1008.4
20210123072515 28 0.0 2.0 0.00 0.00 0.00 78 1008.3
20210123072034 28 293 1.0 4.0 0.00 0.00 0.00 78 1008.4
20210123071526 28 0.0 2.0 0.00 0.00 0.00 78 1008.4
20210123071022 28 270 1.0 3.0 0.00 0.00 0.00 79 1008.3
20210123070519 28 248 1.0 7.0 0.00 0.00 0.00 79 1008.2
20210123070029 28 248 1.0 4.0 0.00 0.00 0.00 80 1008.1
20210123065518 28 0.0 3.0 0.00 0.00 0.00 81 1008.1
20210123065032 28 293 1.0 3.0 0.00 0.00 0.00 81 1008.1
20210123064524 28 293 1.0 4.0 0.00 0.00 0.00 81 1008.0
20210123064031 28 0.0 2.0 0.00 0.00 0.00 82 1008.0
20210123063523 28 0.0 3.0 0.00 0.00 0.00 82 1007.9
20210123063025 28 270 1.0 3.0 0.00 0.00 0.00 82 1007.9
20210123062528 28 0.0 1.0 0.00 0.00 0.00 82 1007.8
20210123062028 28 0.0 1.0 0.00 0.00 0.00 82 1007.7
20210123061535 29 0.0 2.0 0.00 0.00 0.00 81 1007.7
20210123061024 29 0.0 2.0 0.00 0.00 0.00 81 1007.7
20210123060536 29 0.0 2.0 0.00 0.00 0.00 81 1007.7
20210123060027 29 0.0 2.0 0.00 0.00 0.00 81 1007.7
20210123055523 29 0.0 1.0 0.00 0.00 0.00 81 1007.6
20210123055026 29 0.0 2.0 0.00 0.00 0.00 81 1007.7
20210123054544 30 0.0 3.0 0.00 0.00 0.00 80 1007.6
20210123054024 30 0.0 1.0 0.00 0.00 0.00 80 1007.6
20210123053538 30 0.0 3.0 0.00 0.00 0.00 80 1007.6
20210123053040 30 0.0 4.0 0.00 0.00 0.00 80 1007.6
20210123052525 31 0.0 0.0 0.00 0.00 0.00 79 1007.5
20210123052023 31 0.0 3.0 0.00 0.00 0.00 79 1007.4
20210123051531 31 0.0 2.0 0.00 0.00 0.00 80 1007.5
20210123051021 31 0.0 3.0 0.00 0.00 0.00 80 1007.5
20210123050526 31 0.0 2.0 0.00 0.00 0.00 80 1007.4
20210123050027 31 0.0 2.0 0.00 0.00 0.00 80 1007.4
20210123045519 32 0.0 2.0 0.00 0.00 0.00 80 1007.5
20210123045022 32 293 1.0 3.0 0.00 0.00 0.00 81 1007.5
20210123044528 32 270 1.0 4.0 0.00 0.00 0.00 81 1007.5
20210123044029 32 338 1.0 3.0 0.00 0.00 0.00 82 1007.5
20210123043525 31 0 1.0 2.0 0.00 0.00 0.00 82 1007.6
20210123043031 31 248 1.0 3.0 0.00 0.00 0.00 83 1007.5
20210123042522 31 0.0 3.0 0.00 0.00 0.00 83 1007.5
20210123042024 31 0.0 0.0 0.00 0.00 0.00 84 1007.5
20210123041529 31 0.0 4.0 0.00 0.00 0.00 84 1007.4
20210123041024 31 248 1.0 2.0 0.00 0.00 0.00 85 1007.4
20210123040526 30 293 1.0 4.0 0.00 0.00 0.00 85 1007.5
20210123040037 30 293 1.0 3.0 0.00 0.00 0.00 85 1007.4
20210123035518 30 180 1.0 4.0 0.00 0.00 0.00 85 1007.4
20210123035023 30 270 1.0 4.0 0.00 0.00 0.00 85 1007.3
20210123034528 30 0.0 2.0 0.00 0.00 0.00 84 1007.3
20210123034031 30 0.0 0.0 0.00 0.00 0.00 84 1007.3
20210123033536 30 0.0 0.0 0.00 0.00 0.00 84 1007.3
20210123033027 30 0.0 0.0 0.00 0.00 0.00 84 1007.2
20210123032524 30 0.0 0.0 0.00 0.00 0.00 83 1007.2
20210123032028 30 0.0 0.0 0.00 0.00 0.00 83 1007.2
20210123031524 30 0.0 0.0 0.00 0.00 0.00 83 1007.1
20210123031028 30 0.0 0.0 0.00 0.00 0.00 83 1007.0
20210123030525 30 0.0 0.0 0.00 0.00 0.00 83 1007.0
20210123030029 30 0.0 0.0 0.00 0.00 0.00 82 1006.9
20210123025518 30 0.0 0.0 0.00 0.00 0.00 82 1006.9
20210123025022 30 0.0 0.0 0.00 0.00 0.00 82 1006.9
20210123024525 30 0.0 0.0 0.00 0.00 0.00 83 1006.8
20210123024019 30 0.0 0.0 0.00 0.00 0.00 82 1006.8
20210123023523 30 0.0 0.0 0.00 0.00 0.00 83 1006.8
20210123023042 30 0.0 0.0 0.00 0.00 0.00 83 1006.8
20210123022526 30 0.0 0.0 0.00 0.00 0.00 83 1006.8
20210123022039 30 0.0 0.0 0.00 0.00 0.00 82 1006.8
20210123021546 30 0.0 0.0 0.00 0.00 0.00 82 1006.8
20210123021028 31 0.0 0.0 0.00 0.00 0.00 81 1006.7
20210123020543 31 0.0 0.0 0.00 0.00 0.00 81 1006.7
20210123020030 32 0.0 0.0 0.00 0.00 0.00 79 1006.7
20210123015524 32 0.0 0.0 0.00 0.00 0.00 78 1006.7
20210123015027 33 0.0 1.0 0.00 0.00 0.00 77 1006.6
20210123014523 34 0.0 4.0 0.00 0.00 0.00 75 1006.5
20210123014027 35 338 1.0 3.0 0.00 0.00 0.00 74 1006.4
20210123013526 35 338 3.0 7.0 0.00 0.00 0.00 74 1006.3
20210123013028 35 338 2.0 5.0 0.00 0.00 0.00 73 1006.3
20210123012529 35 338 3.0 6.0 0.00 0.00 0.00 73 1006.2
20210123012028 36 338 2.0 6.0 0.00 0.00 0.00 73 1006.2
20210123011527 36 338 3.0 8.0 0.00 0.00 0.00 74 1006.2
20210123011021 36 23 3.0 5.0 0.00 0.00 0.00 74 1006.0
20210123010520 36 338 3.0 5.0 0.00 0.00 0.00 73 1006.0
20210123010035 36 338 3.0 7.0 0.00 0.00 0.00 73 1006.0
20210123005525 36 315 4.0 9.0 0.00 0.00 0.00 73 1005.9
20210123005030 37 338 2.0 5.0 0.00 0.00 0.00 72 1005.9
20210123004535 37 338 3.0 8.0 0.00 0.00 0.00 72 1005.8
20210123004024 37 338 1.0 3.0 0.00 0.00 0.00 72 1005.7
20210123003524 37 315 2.0 6.0 0.00 0.00 0.00 72 1005.7
20210123003033 36 315 2.0 6.0 0.00 0.00 0.00 72 1005.6
20210123002518 37 315 2.0 6.0 0.00 0.00 0.00 72 1005.7
20210123002027 37 338 2.0 6.0 0.00 0.00 0.00 72 1005.6
20210123001521 37 338 3.0 8.0 0.00 0.00 0.00 72 1005.6
20210123001027 36 0 1.0 3.0 0.00 0.00 0.00 70 1005.5
20210123000536 36 0 1.0 7.0 0.00 0.00 0.00 71 1005.5
20210123000048 35 0.0 4.0 0.00 0.00 0.00 73 1005.4
20210122235526 35 0.0 3.0 0.00 0.00 0.00 74 1005.3
20210122235023 35 0.0 0.0 0.00 0.00 0.00 73 1005.2
20210122234526 35 0.0 0.0 0.00 0.00 0.00 73 1005.1
20210122234031 35 0.0 0.0 0.00 0.00 0.00 72 1005.1
20210122233518 35 0.0 0.0 0.00 0.00 0.00 72 1005.0
20210122233034 35 0.0 0.0 0.00 0.00 0.00 73 1005.0
20210122232534 35 0.0 0.0 0.00 0.00 0.00 72 1005.0
20210122232022 35 0.0 0.0 0.00 0.00 0.00 72 1005.0
20210122231525 35 0.0 0.0 0.00 0.00 0.00 71 1005.0
20210122231025 35 0.0 0.0 0.00 0.00 0.00 72 1004.9
20210122230524 35 0.0 0.0 0.00 0.00 0.00 70 1004.8
20210122230037 35 0.0 0.0 0.00 0.00 0.00 71 1004.8
20210122225527 35 0.0 0.0 0.00 0.00 0.00 70 1004.7
20210122225021 35 0.0 1.0 0.00 0.00 0.00 71 1004.6
20210122224521 35 0.0 1.0 0.00 0.00 0.00 70 1004.5
20210122224023 35 293 1.0 2.0 0.00 0.00 0.00 69 1004.4
20210122223525 36 0.0 1.0 0.00 0.00 0.00 70 1004.3
20210122223023 36 0.0 2.0 0.00 0.00 0.00 67 1004.2
20210122222533 36 0.0 4.0 0.00 0.00 0.00 67 1004.1
20210122222018 37 293 1.0 3.0 0.00 0.00 0.00 65 1004.1
20210122221524 37 225 1.0 5.0 0.00 0.00 0.00 64 1004.0
20210122221032 38 270 1.0 4.0 0.00 0.00 0.00 64 1003.9
20210122220517 38 248 3.0 9.0 0.00 0.00 0.00 63 1003.8
20210122220038 38 248 1.0 4.0 0.00 0.00 0.00 63 1003.7
20210122215520 39 0.0 2.0 0.00 0.00 0.00 62 1003.7
20210122215022 39 0.0 2.0 0.00 0.00 0.00 61 1003.6
20210122214526 39 0.0 2.0 0.00 0.00 0.00 61 1003.4
20210122214026 39 248 1.0 4.0 0.00 0.00 0.00 61 1003.4
20210122213524 39 0 1.0 3.0 0.00 0.00 0.00 61 1003.3
20210122213021 39 293 2.0 8.0 0.00 0.00 0.00 61 1003.2
20210122212523 39 0.0 2.0 0.00 0.00 0.00 60 1003.1
20210122212023 39 203 1.0 7.0 0.00 0.00 0.00 60 1003.0
20210122211522 39 315 2.0 7.0 0.00 0.00 0.00 59 1003.0
20210122211022 40 315 2.0 4.0 0.00 0.00 0.00 60 1003.0
20210122210517 40 293 3.0 8.0 0.00 0.00 0.00 58 1002.9